Date,TemperatureHighF,TemperatureAvgF,TemperatureLowF,DewpointHighF,DewpointAvgF,DewpointLowF,HumidityHigh,HumidityAvg,HumidityLow,PressureMaxIn,PressureMinIn,WindSpeedMaxMPH,WindSpeedAvgMPH,GustSpeedMaxMPH,PrecipitationSumIn
2014-1-1,46.4,31.5,22.8,4.5,-6.4,-16.8,43,22,10,30.07,29.85,26,6,26,0.00
2014-1-2,30.9,25.5,11.1,12.6,7.7,-4.2,62,47,30,29.85,29.46,17,3,18,0.00
2014-1-3,13.3,6.3,2.5,-5.0,-20.7,-36.2,48,30,10,30.12,29.58,21,9,25,0.01
2014-1-4,39.7,22.6,2.7,-12.3,-20.4,-34.2,43,15,10,30.08,29.92,23,7,23,0.00
2014-1-5,50.5,37.7,25.0,36.1,4.0,-23.8,80,33,10,29.94,29.36,22,8,27,0.00
2014-1-6,45.0,17.1,-10.8,33.3,-2.3,-49.0,67,44,12,29.78,29.27,34,14,34,0.22
2014-1-7,-0.9,-5.5,-13.9,-34.5,-42.9,-47.7,30,15,10,29.96,29.76,24,13,27,0.09
2014-1-8,22.3,12.0,-2.7,7.7,-19.9,-44.3,54,24,10,30.20,29.96,14,6,19,0.00
2014-1-9,38.7,26.8,19.8,7.6,-2.3,-16.2,53,32,10,30.31,30.18,12,4,12,0.02
2014-1-10,44.4,34.4,25.9,33.1,18.6,-1.9,77,53,25,30.19,29.82,20,5,20,0.02
2014-1-11,51.4,46.4,35.8,44.3,34.6,15.5,80,64,37,29.82,29.26,26,10,30,0.43
2014-1-12,35.6,31.5,30.0,19.2,13.5,10.0,55,47,39,29.87,29.46,26,14,32,0.05
2014-1-13,59.4,42.1,32.9,59.4,18.4,-15.6,63,31,10,29.85,29.63,11,5,11,0.02
2014-1-14,25.5,20.3,14.2,17.4,5.5,-0.5,71,53,35,30.07,29.95,16,4,16,0.00
2014-1-15,33.4,29.4,22.5,27.6,10.3,-12.8,79,51,13,29.99,29.89,11,4,11,3.01
2014-1-16,33.4,24.2,16.7,33.4,-1.0,-20.4,48,26,10,29.95,29.82,8,4,8,0.00
2014-1-17,39.9,31.4,23.5,18.5,9.3,-19.3,62,41,11,29.87,29.79,14,5,17,0.00
2014-1-18,23.5,20.0,7.9,8.0,-0.7,-27.2,51,40,12,29.90,29.83,17,9,17,0.00
2014-1-19,32.4,24.4,11.5,11.9,-0.2,-13.8,61,38,13,29.82,29.67,27,9,27,0.00
2014-1-20,34.9,32.5,29.8,1.8,-6.7,-11.3,25,18,14,29.69,29.62,22,14,22,0.09
2014-2-2,48.9,40.1,28.9,48.9,29.6,-4.8,70,49,11,30.11,29.93,19,4,19,0.07
2014-2-3,32.4,26.7,19.6,20.2,14.1,2.1,70,59,40,30.27,30.02,8,2,8,0.00
2014-2-4,31.1,22.0,15.4,11.2,4.5,-7.6,63,48,18,30.32,30.04,11,4,11,0.00
2014-2-5,36.7,26.8,17.2,28.5,14.4,-0.9,72,59,40,30.13,29.67,30,9,30,0.06
2014-2-6,27.3,19.1,14.9,27.3,-2.2,-22.9,51,33,12,30.27,30.13,14,8,14,0.00
2014-2-7,26.1,17.8,11.1,26.1,-4.3,-29.8,48,24,10,30.25,30.17,17,8,17,0.00
2014-2-8,26.8,14.7,3.6,26.8,-3.0,-24.8,47,30,15,30.24,30.10,6,2,6,0.00
2014-2-16,24.6,16.7,7.9,6.0,-5.1,-20.5,53,38,19,30.16,29.90,19,5,19,0.00
2014-2-17,34.5,19.1,4.8,34.5,9.1,-17.6,50,27,13,30.31,29.95,15,7,15,0.11
2014-2-18,45.3,33.2,20.7,45.3,23.9,-1.5,70,40,17,30.04,29.86,24,10,24,0.09
2014-2-19,48.9,40.1,32.9,41.9,21.3,-9.2,68,34,10,30.12,29.74,34,9,34,0.38
2014-2-20,47.3,38.9,26.4,47.3,22.7,-8.9,62,29,10,30.14,29.85,17,7,17,0.01
2014-2-21,51.3,43.3,34.2,47.8,32.0,-10.3,73,28,10,29.96,29.70,27,10,27,0.24
2014-2-22,52.0,41.1,30.4,52.0,38.8,-12.7,10,10,10,30.03,29.96,27,9,27,0.02
2014-2-23,47.1,34.7,26.8,47.1,14.2,-11.2,66,37,11,30.03,29.94,12,4,12,0.02
2014-2-24,28.0,27.5,27.3,13.9,11.3,10.3,55,50,48,29.95,29.94,8,5,11,0.00
2014-2-25,18.9,18.9,18.9,-6.0,-6.0,-6.0,32,32,32,29.96,29.96,5,5,9,0.00
2014-8-14,72.3,59.9,48.4,46.9,27.7,4.1,71,37,10,30.05,29.99,20,5,20,0.00
2014-8-15,68.4,57.8,44.4,41.6,20.5,6.1,69,30,10,30.09,30.04,16,4,16,0.00
2014-8-16,76.6,62.1,45.9,42.4,24.5,8.9,72,33,10,30.09,30.03,10,4,10,0.00
2014-8-17,78.4,68.4,62.4,55.1,41.9,19.3,67,43,11,30.07,30.01,11,5,11,0.05
2014-8-18,81.7,69.7,60.3,59.0,48.6,33.9,80,52,18,30.04,29.91,6,2,6,0.00
2014-8-19,81.7,70.4,64.0,58.2,53.7,43.3,75,57,26,30.00,29.92,11,3,11,0.12
2014-8-20,82.0,68.9,62.8,60.4,52.5,29.8,82,60,15,30.10,29.99,8,2,8,0.28
2014-8-21,81.0,70.7,65.7,57.0,50.9,38.1,73,53,22,30.13,30.08,14,4,14,0.00
2014-8-22,83.3,70.9,65.7,60.4,53.5,35.5,79,58,20,30.13,30.04,8,2,8,0.02
2014-8-23,113.4,68.8,63.3,99.9,56.8,41.4,89,68,26,30.16,30.04,11,2,11,0.01
2014-8-24,75.2,65.9,57.9,56.2,44.4,28.2,80,51,20,30.22,30.14,15,4,15,0.01
2014-8-25,80.6,66.4,54.1,55.1,35.2,1.9,80,42,10,30.27,30.20,24,3,24,0.00
2014-8-26,88.7,69.5,53.2,50.7,30.2,11.6,70,31,10,30.27,30.17,28,2,28,0.00
2014-8-27,85.5,71.3,56.8,59.5,41.4,25.7,73,38,13,30.19,30.06,14,3,14,0.00
2014-8-28,73.9,64.4,53.4,57.8,32.7,9.0,74,40,10,30.21,30.08,17,4,17,0.00
2014-8-29,81.9,67.0,46.4,45.2,25.5,9.6,73,27,10,30.25,30.18,11,4,11,0.00
2014-8-30,88.7,72.5,59.2,58.2,41.7,22.1,69,39,10,30.24,30.14,14,4,14,0.00
2014-8-31,76.3,69.9,67.5,60.3,57.0,49.9,76,64,42,30.18,30.10,12,4,12,0.14
2014-9-1,83.3,72.6,67.1,65.1,55.3,33.6,82,59,17,30.12,30.05,19,4,19,0.07
2014-9-2,83.7,70.6,67.6,60.8,55.3,38.3,73,60,20,30.08,29.96,14,4,14,0.07
2014-9-3,84.6,71.6,62.8,58.3,40.5,16.7,77,42,10,30.22,30.06,8,2,8,0.01
2014-9-4,88.0,73.6,59.7,69.4,48.2,22.1,98,52,10,30.23,30.16,14,3,14,0.15
2014-9-5,92.3,76.1,64.6,74.2,64.6,54.7,100,74,40,30.26,30.11,9,2,9,0.01
2014-9-6,83.7,69.4,58.1,71.6,61.5,56.6,100,79,40,30.15,30.00,14,5,14,0.01
2014-9-7,77.2,62.8,51.4,59.4,50.2,42.8,100,69,40,30.26,30.14,11,3,11,0.00
2014-9-8,72.7,61.5,46.8,56.5,49.4,39.2,100,67,40,30.29,30.23,25,6,25,0.00
2014-9-9,72.9,63.5,57.6,49.8,43.9,34.9,63,50,25,30.26,30.16,17,5,17,0.00
2014-9-10,80.2,69.2,47.1,53.0,45.4,19.5,70,46,16,30.18,29.98,103,8,103,0.05
2014-9-11,73.9,68.0,57.7,59.8,48.0,41.4,70,50,36,30.15,29.91,51,6,51,0.09
2014-9-12,70.2,59.3,51.6,43.9,32.5,10.4,69,43,10,30.24,30.14,10,3,10,0.00
2014-9-13,65.7,55.7,46.0,48.0,37.9,18.8,76,54,17,30.32,30.11,19,5,19,0.30
2014-9-14,70.9,53.8,41.5,39.5,23.8,3.4,72,40,10,30.36,30.23,13,2,13,0.00
2014-9-15,73.2,56.2,41.0,40.0,24.7,5.7,71,39,10,30.28,30.10,12,2,12,0.00
2014-9-16,67.6,56.2,47.5,43.1,31.5,7.0,64,44,10,30.14,30.06,14,3,14,0.00
2014-9-17,73.4,56.4,42.8,41.3,24.6,5.4,72,39,10,30.12,30.02,13,2,13,0.00
2014-9-18,72.7,57.3,45.9,57.1,23.9,2.8,79,36,10,30.19,30.03,98,2,98,0.00
2014-9-19,70.2,56.8,43.3,43.2,29.0,8.3,72,40,10,30.29,30.19,19,5,19,0.00
2014-9-20,82.4,67.0,55.9,45.8,32.3,14.1,67,35,10,30.26,30.06,16,6,16,0.00
2014-9-21,77.0,65.7,57.2,51.7,37.9,14.8,63,39,16,30.08,29.76,21,6,21,0.01
2014-9-22,59.4,51.5,46.6,39.1,27.6,0.3,66,43,10,30.28,29.89,17,7,18,0.08
2014-9-23,75.6,54.2,36.1,36.9,19.1,2.5,70,34,10,30.42,30.28,10,2,10,0.00
2014-9-24,73.2,58.0,44.6,36.7,22.1,-8.7,62,31,10,30.51,30.42,21,5,21,0.00
2014-9-25,72.5,60.2,54.7,43.8,37.4,21.8,65,45,15,30.43,30.31,8,3,8,0.00
2014-9-26,79.3,61.1,47.8,53.3,30.6,-0.9,77,43,10,30.35,30.26,11,2,11,0.01
2014-9-27,82.6,62.7,45.5,57.2,28.6,9.9,74,37,10,30.33,30.25,100,2,100,0.00
2014-9-28,81.5,64.0,49.1,49.3,30.7,13.0,70,36,10,30.28,30.13,8,1,8,0.00
2014-9-29,79.3,64.4,54.7,49.3,33.0,9.7,70,39,10,30.14,29.99,9,2,9,0.00
2014-9-30,78.3,62.6,54.5,48.3,36.0,12.9,66,44,10,30.00,29.95,13,2,13,0.00
2014-10-1,73.8,60.1,48.7,49.0,33.6,10.0,76,45,10,30.13,30.01,9,3,9,0.00
2014-10-2,80.6,63.9,53.8,52.5,32.8,10.1,77,41,10,30.19,30.11,11,3,11,0.00
2014-10-3,71.2,62.6,57.7,55.1,46.6,33.6,81,58,26,30.11,29.73,29,9,29,0.50
2014-10-4,61.0,47.2,37.8,55.1,24.1,-6.3,81,45,10,29.84,29.71,32,10,32,0.05
2014-10-5,51.8,42.7,36.5,18.8,5.6,-8.7,47,24,10,29.96,29.81,22,7,22,0.00
2014-10-6,71.4,53.9,42.8,41.6,16.1,-7.6,62,29,10,29.97,29.86,27,8,27,0.14
2014-10-7,67.8,55.1,48.4,44.0,32.3,5.7,68,48,10,30.02,29.83,29,6,29,0.21
2014-10-8,64.2,55.4,50.9,42.1,19.5,-1.5,65,30,10,30.07,29.88,32,9,32,0.05
2014-10-9,61.9,50.5,39.9,31.2,10.8,-1.5,57,23,10,30.14,30.06,24,6,24,0.04
2014-10-10,61.0,51.6,43.3,37.8,31.3,20.3,64,48,22,30.14,30.07,5,1,5,0.07
2014-10-11,61.7,50.3,42.1,44.5,31.0,-0.4,78,54,10,30.22,30.01,14,3,14,0.33
2014-10-12,59.2,46.8,35.1,37.9,24.7,7.8,73,46,13,30.26,30.20,23,6,23,0.00
2014-10-13,66.0,57.5,49.5,49.8,43.2,37.4,68,59,44,30.25,30.17,19,7,19,0.02
2014-10-14,74.3,65.8,-2.6,56.7,49.3,-45.4,68,56,10,30.17,29.90,119,14,119,0.52
2014-10-15,67.5,57.8,49.3,52.5,44.6,40.3,79,62,50,29.95,29.79,32,6,32,0.93
2014-10-16,56.5,50.4,46.6,42.9,40.6,32.8,78,70,43,29.83,29.78,9,2,9,0.01
2014-10-17,70.0,57.2,50.4,42.1,27.9,5.6,69,40,10,29.85,29.71,30,7,30,0.02
2014-10-18,60.6,49.1,41.4,32.1,25.3,15.9,65,40,24,29.95,29.71,56,10,56,0.02
2014-10-19,51.8,41.5,34.2,31.2,11.5,-11.8,67,35,10,30.13,29.95,20,8,20,0.09
2014-10-20,52.7,44.7,35.6,27.0,12.4,-2.9,44,30,10,30.10,29.93,15,3,15,0.00
2014-10-21,57.2,48.7,44.6,38.5,31.7,21.5,69,53,32,30.01,29.88,14,4,14,0.02
2014-10-22,45.7,44.6,42.6,38.6,34.9,28.9,85,69,56,30.14,29.99,17,6,17,0.15
2014-10-23,60.1,47.5,41.7,30.3,21.5,1.3,62,41,10,30.10,30.02,19,8,19,0.00
2014-10-24,56.8,48.2,42.8,35.5,17.6,-1.2,63,35,10,30.09,30.01,17,6,17,0.00
2014-10-25,65.8,54.1,42.1,32.8,18.6,4.8,44,27,10,30.04,29.79,26,9,26,0.00
2014-10-26,60.1,52.0,44.8,25.3,-1.5,-8.3,30,11,10,29.99,29.80,40,10,40,0.26
2014-10-27,76.3,56.2,37.8,15.8,1.5,-13.3,17,11,10,30.10,29.99,12,4,12,0.00
2014-10-28,66.9,63.9,60.8,14.1,7.4,3.9,14,11,10,30.06,30.01,11,5,11,0.00
2014-10-29,60.1,51.7,44.4,45.2,17.6,-4.7,58,32,10,30.04,29.96,19,8,19,0.05
2014-10-30,46.4,42.6,39.4,21.6,12.6,-2.2,47,31,13,30.10,30.04,9,4,9,0.00
2014-10-31,45.9,41.8,38.5,28.6,17.7,-2.7,65,41,13,30.05,29.86,7,2,7,0.07
2014-11-1,40.6,37.0,31.3,29.0,24.2,12.3,72,60,41,30.06,29.87,13,6,13,0.05
2014-11-2,43.3,36.3,30.2,16.2,-9.0,-17.2,55,16,10,30.29,30.06,26,9,26,0.02
2014-11-3,60.1,42.9,28.0,4.5,-2.7,-15.8,35,16,10,30.33,30.20,21,5,23,0.00
2014-11-4,68.4,56.8,48.6,9.7,0.9,-5.6,10,10,10,30.24,30.08,21,8,21,0.00
2014-11-5,58.8,50.4,45.5,33.0,12.4,-4.8,59,25,10,30.22,30.09,24,6,24,0.02
2014-11-6,59.7,46.1,40.8,39.4,33.2,-1.6,73,63,10,30.10,29.72,24,6,24,0.50
2014-11-7,40.8,35.4,27.0,30.9,14.7,-1.6,68,45,18,30.03,29.78,32,10,32,0.31
2014-11-8,52.5,39.2,25.3,11.9,-2.1,-11.9,54,21,10,30.02,29.83,20,6,20,0.00
2014-11-9,51.6,42.0,12.9,18.1,0.3,-33.2,40,19,10,30.02,29.89,20,6,20,0.00
2014-11-10,65.1,50.4,38.8,7.7,2.5,-5.9,26,15,10,30.12,30.00,23,7,23,0.00
2014-11-11,72.3,55.6,43.2,14.2,6.2,-3.8,30,15,10,30.03,29.90,20,7,20,0.00
2014-11-12,55.9,39.4,31.5,29.1,4.0,-5.6,56,25,10,30.17,29.90,18,7,18,0.12
2014-11-13,32.0,29.7,23.9,12.2,5.9,-0.5,54,37,26,30.14,30.03,19,6,20,0.00
2014-11-14,29.8,24.4,21.7,8.2,-3.2,-20.3,52,32,11,30.24,30.07,18,8,20,0.00
2014-11-15,36.1,26.6,18.1,2.7,-12.8,-23.9,42,19,10,30.34,30.22,13,3,13,0.00
2014-11-16,39.4,33.3,26.4,19.9,-8.9,-22.7,61,18,10,30.23,29.92,15,5,15,0.01
2014-11-17,34.7,31.4,14.9,25.6,19.0,-13.7,69,61,27,29.92,29.54,36,8,36,0.40
2014-11-18,16.2,13.1,9.5,-7.4,-22.4,-32.9,40,19,10,30.11,29.83,35,14,35,0.67
2014-11-19,37.0,24.5,10.6,-9.8,-20.1,-29.9,38,14,10,30.17,29.88,28,8,28,0.00
2014-11-20,33.8,25.9,18.0,4.2,-14.3,-27.9,32,17,10,30.08,29.87,32,12,32,0.02
2014-11-21,26.1,18.7,14.5,-5.7,-19.7,-31.0,34,17,10,30.42,30.08,30,7,30,0.00
2014-11-22,45.7,33.6,15.3,-4.2,-15.5,-31.0,19,11,10,30.39,30.13,19,5,19,0.00
2014-11-23,62.8,51.2,41.7,34.0,1.7,-10.6,61,16,10,30.15,29.65,40,9,40,0.13
2014-11-24,70.0,57.1,45.9,37.7,16.5,-7.6,61,28,10,29.88,29.55,39,13,39,0.51
2014-11-25,50.0,40.4,29.3,10.0,-1.6,-12.2,40,18,10,30.17,29.88,29,8,29,0.00
2014-11-26,33.6,30.8,28.9,19.8,15.6,7.7,65,53,38,30.17,29.96,5,1,5,0.00
2014-11-27,35.1,28.7,23.9,21.2,16.0,7.8,67,59,33,30.14,29.96,19,4,19,0.01
2014-11-28,27.9,22.1,17.6,12.5,-1.6,-24.6,61,39,10,30.25,30.14,24,6,24,0.00
2014-11-29,39.6,30.7,20.1,6.8,-5.6,-17.9,48,23,10,30.18,30.02,18,6,18,0.04
2014-11-30,59.4,51.3,36.9,25.9,19.3,1.6,44,29,18,30.10,29.99,14,6,14,0.00
2014-12-1,58.3,43.6,27.9,44.8,28.3,12.2,73,58,24,30.46,30.09,18,5,18,0.37
2014-12-2,33.4,29.0,25.7,24.9,15.5,4.1,71,57,36,30.45,30.14,0,0,0,0.00
2014-12-3,43.2,34.1,30.2,27.5,21.2,8.3,74,60,38,30.28,30.04,32,6,32,0.00
2014-12-4,35.6,30.6,26.8,10.8,-1.1,-18.9,45,28,10,30.39,30.27,19,4,19,0.00
2014-12-5,34.2,32.9,31.5,24.7,20.2,7.3,68,60,35,30.36,30.18,16,7,16,0.11
2014-12-6,34.2,34.0,31.5,24.7,24.2,14.1,68,67,48,30.36,30.03,14,6,14,0.01
2014-12-7,47.5,32.8,25.2,14.1,-5.5,-22.0,49,23,10,30.51,30.35,15,5,15,0.00
2014-12-8,31.6,28.2,25.5,18.5,-4.7,-23.4,65,30,10,30.48,30.18,24,9,24,0.00
2014-12-9,42.4,34.4,28.8,26.2,20.3,15.4,69,57,41,30.18,29.97,17,3,17,0.04
2014-12-10,34.2,33.5,33.1,22.8,21.0,18.4,65,60,53,29.98,29.97,16,8,16,0.00
2014-12-11,28.2,26.0,21.2,11.1,-10.6,-22.4,59,25,10,29.98,29.83,31,13,31,0.34
2014-12-12,27.9,26.0,24.1,7.5,4.7,-9.0,45,40,19,30.14,29.97,23,8,27,0.00
2014-12-13,34.5,28.2,25.0,24.7,14.8,7.0,67,57,40,30.15,30.03,19,8,24,0.00
2014-12-14,40.1,37.4,34.5,31.5,28.4,24.7,73,69,67,30.08,30.00,22,8,22,0.01
2014-12-15,48.2,40.8,39.0,34.6,30.4,24.5,79,67,42,30.11,29.97,11,3,11,0.00
2014-12-16,44.2,40.4,37.6,35.3,28.5,23.2,74,63,53,29.97,29.79,21,5,21,0.43
2014-12-17,38.8,32.2,26.1,28.8,16.6,2.4,69,53,35,30.06,29.91,28,11,28,0.14
2014-12-18,25.9,23.9,23.0,8.6,4.8,-1.6,52,43,32,30.13,30.04,30,9,30,0.00
2014-12-19,26.1,24.7,23.2,11.7,8.0,0.7,60,49,36,30.22,30.07,18,7,18,0.00
2014-12-20,35.2,25.8,17.4,6.6,-0.2,-17.9,50,34,10,30.23,30.16,11,2,11,0.00
2014-12-21,37.9,27.9,23.7,8.7,1.0,-16.1,50,34,10,30.28,30.19,9,2,9,0.00
2014-12-22,32.9,27.8,22.1,21.1,10.5,3.5,66,48,33,30.20,30.03,17,7,17,0.00
2014-12-23,41.5,34.7,30.7,28.1,25.6,20.8,73,69,52,30.03,29.95,11,9,15,0.00
2014-12-24,55.4,39.4,38.1,42.2,28.7,24.4,67,66,44,29.96,29.47,32,11,32,0.14
2014-12-25,44.2,35.8,33.4,26.1,16.2,9.4,60,45,34,30.20,29.65,31,11,31,0.11
2014-12-26,52.5,38.9,31.8,15.4,2.1,-12.9,49,25,10,30.30,30.17,13,5,14,0.00
2014-12-27,61.3,46.3,33.1,4.3,-4.7,-15.7,20,12,10,30.27,30.00,13,4,13,0.00
2014-12-28,52.0,39.6,31.8,31.7,18.9,-5.4,66,49,10,30.12,29.93,19,6,22,0.01
2014-12-29,36.0,30.0,25.2,17.5,4.4,-12.4,55,36,12,30.24,30.11,11,4,11,0.00
2014-12-30,32.0,23.8,19.0,-0.9,-13.6,-25.9,39,21,10,30.37,30.24,15,5,15,0.00
2014-12-31,26.2,19.0,14.7,-7.0,-22.2,-28.9,31,15,10,30.33,30.12,34,10,34,0.44
2015-1-1,34.9,25.6,17.6,-16.1,-23.3,-29.6,10,10,10,30.12,29.97,36,14,36,0.17
2015-1-2,37.6,29.2,24.8,-6.3,-15.6,-22.3,24,14,10,30.36,30.06,28,7,28,0.01